{"data":{"norad_id":64859,"epoch":"2026-09-20T14:04:34.415616Z","epoch_age_seconds":116749,"freshness":"FRESH","line1":"1 64859U 25152T   26263.58650944  .00010951  00000+0  34106-3 0  9999","line2":"2 64859  97.2845 114.0941 0001964  91.3692 268.7775 15.33443009 64834","mean_motion":15.33443009,"eccentricity":0.0001964,"inclination_deg":97.2845,"raan_deg":114.0941,"arg_perigee_deg":91.3692,"mean_anomaly_deg":268.7775,"bstar":0.00034106,"rev_number":6483,"period_min":93.906326583279,"perigee_km":464.20499835005,"apogee_km":466.89319824946,"semimajor_km":6843.6860982998,"source":"CELESTRAK","updated_at":"2026-09-21T09:00:35.451855Z"}}